Weather History for KAVL - May, 2011

Change the Weather History Date:

Wednesday, May 18, 2011

  Actual Average Record
Temperature  
Mean Temperature 52 °F 64 °F  
Max Temperature 59 °F 75 °F 90 °F (1996)
Min Temperature 44 °F 52 °F 30 °F (1973)
Degree Days  
Heating Degree Days 13 3  
Month to date heating degree days 102 81  
Since 1 July heating degree days 4251 4153  
Cooling Degree Days 0 2  
Month to date cooling degree days 32 20  
Year to date cooling degree days 60 28  
Moisture  
Dew Point 44 °F    
Average Humidity 80    
Maximum Humidity 93    
Minimum Humidity 66    
Precipitation  
Precipitation T in 0.12 in 1.24 in (1975)
Month to date precipitation 2.02 2.06  
Year to date precipitation 18.39 16.65  
Snow  
Snow 0.00 in 0.00 in 0.00 in ()
Month to date snowfall 0.0 0.0  
Since 1 July snowfall 20.8 9.9  
Snow Depth 0.00 in    
Sea Level Pressure  
Sea Level Pressure 29.83 in    
Wind  
Wind Speed 7 mph (NNW)    
Max Wind Speed 15 mph    
Max Gust Speed 17 mph    
Visibility 10 miles    
Events      
T = Trace of Precipitation, MM = Missing Value Source: NWS Daily Summary

Daily Weather History Graph

Daily Weather History Graph

Search for Another Location

Airport or City:

Trip Planner

Search our weather history database for the weather conditions in past years. The results will help you decide how hot, cold, wet, or windy it might be!

Date:

Astronomy

May. 18, 2011 Rise Set
Actual Time 6:23 AM EDT 8:29 PM EDT
Civil Twilight 5:55 AM EDT 8:58 PM EDT
Nautical Twilight 5:20 AM EDT 9:33 PM EDT
Astronomical Twilight 4:43 AM EDT 10:10 PM EDT
Moon 10:11 PM EDT (5/18) 7:10 AM EDT (5/18)
Length of Visible Light 15h 03m
Length of Day
14h 06m
Full, 98% of the Moon is Illuminated
May 18
Full
May 24
Last Quarter
Jun 1
New
Jun 8
First Quarter
Jun 15
Full

Hourly Weather History & Observations

Time (EDT) Temp. Windchill Dew Point Humidity Pressure Visibility Wind Dir Wind Speed Gust Speed Precip Events Conditions
12:54 AM 45.0 °F 38.9 °F 42.1 °F 90% 29.75 in 10.0 mi NNW 12.7 mph 20.7 mph N/A   Overcast
1:54 AM 45.0 °F 39.7 °F 42.1 °F 90% 29.75 in 10.0 mi North 10.4 mph - N/A   Overcast
2:07 AM 44.6 °F 40.2 °F 42.8 °F 93% 29.76 in 10.0 mi North 8.1 mph - N/A   Overcast
2:54 AM 45.0 °F 40.6 °F 42.1 °F 90% 29.75 in 10.0 mi North 8.1 mph - N/A   Overcast
3:54 AM 44.1 °F 38.6 °F 42.1 °F 93% 29.74 in 10.0 mi NNW 10.4 mph - N/A   Overcast
4:18 AM 44.6 °F 39.7 °F 42.8 °F 93% 29.75 in 10.0 mi NNW 9.2 mph - N/A   Overcast
4:54 AM 44.1 °F 42.5 °F 42.1 °F 93% 29.74 in 10.0 mi North 3.5 mph - N/A   Overcast
5:54 AM 45.0 °F 40.6 °F 42.1 °F 90% 29.76 in 10.0 mi NNW 8.1 mph - N/A   Overcast
6:54 AM 45.0 °F 41.2 °F 42.1 °F 90% 29.77 in 10.0 mi NNW 6.9 mph - N/A   Overcast
7:54 AM 46.0 °F 41.4 °F 42.1 °F 86% 29.79 in 10.0 mi North 9.2 mph - N/A   Overcast
8:54 AM 48.0 °F - 42.1 °F 80% 29.81 in 10.0 mi NNW 5.8 mph - N/A   Mostly Cloudy
9:15 AM 48.2 °F - 42.8 °F 82% 29.83 in 10.0 mi NNW 6.9 mph - N/A   Mostly Cloudy
9:54 AM 50.0 °F - 43.0 °F 77% 29.83 in 10.0 mi NNW 5.8 mph - 0.01 in   Overcast
10:54 AM 51.1 °F - 43.0 °F 74% 29.84 in 10.0 mi Variable 5.8 mph - N/A   Overcast
11:54 AM 52.0 °F - 44.1 °F 74% 29.84 in 10.0 mi NNW 8.1 mph - N/A   Overcast
12:54 PM 54.0 °F - 44.1 °F 69% 29.84 in 10.0 mi NNW 5.8 mph - N/A   Overcast
1:54 PM 55.9 °F - 45.0 °F 67% 29.84 in 10.0 mi Calm Calm - 0.00 in   Mostly Cloudy
2:54 PM 57.9 °F - 46.0 °F 65% 29.84 in 10.0 mi NNW 4.6 mph - N/A   Overcast
3:54 PM 57.0 °F - 46.0 °F 67% 29.84 in 10.0 mi NNW 8.1 mph - N/A   Overcast
4:54 PM 57.0 °F - 46.0 °F 67% 29.86 in 10.0 mi NNW 8.1 mph - N/A   Overcast
5:54 PM 57.0 °F - 46.9 °F 69% 29.86 in 10.0 mi NNW 8.1 mph - N/A   Overcast
6:54 PM 55.9 °F - 46.9 °F 72% 29.88 in 10.0 mi North 8.1 mph - N/A   Overcast
7:54 PM 53.1 °F - 46.9 °F 80% 29.90 in 10.0 mi NNW 11.5 mph - N/A   Overcast
8:54 PM 53.1 °F - 46.9 °F 80% 29.92 in 10.0 mi NNW 12.7 mph - N/A   Overcast
9:54 PM 52.0 °F - 46.9 °F 83% 29.94 in 10.0 mi NNW 9.2 mph - N/A   Overcast
10:54 PM 51.1 °F - 46.9 °F 86% 29.95 in 10.0 mi North 4.6 mph - N/A   Overcast
11:54 PM 48.9 °F - 46.0 °F 90% 29.95 in 10.0 mi NNW 4.6 mph - N/A   Mostly Cloudy